Regional Weather Roundup
Issued by NWS Charleston, WV

Home | Current Version | Previous Version | Graphics & Text | Print | Product List | Glossary On
Versions: 1 2 3 4 5 6 7 8 9 10 11 12 13 14 15 16 17 18 19 20 21 22 23 24 25 26 27 28 29 30 31 32 33 34 35 36 37 38 39 40 41 42 43 44 45 46 47 48 49 50
000
ASUS41 KRLX 311610
RWRRLX
West Virginia Regional Weather Roundup
National Weather Service Charleston WV
1200 PM EDT TUE MAR 31 2015

Note: "fair" indicates few or no clouds below 12,000 feet with no
significant weather and/or obstructions to visibility.

WVZ003-311700-
Northern Panhandle of West Virginia

CITY           SKY/WX    TMP DP  RH WIND       PRES   REMARKS
WHEELING       CLOUDY    58  29  33 SW20G32   29.65F
$$

WVZ009-311700-
Northwest West Virginia

CITY           SKY/WX    TMP DP  RH WIND       PRES   REMARKS
PARKERSBURG    MOSUNNY   62  29  28 W16G30    29.73F
$$

WVZ006-311700-
Western West Virginia

CITY           SKY/WX    TMP DP  RH WIND       PRES   REMARKS
HUNTINGTON     SUNNY     68  35  29 W14G28    29.78F
$$

WVZ015-311700-
West Central West Virginia

CITY           SKY/WX    TMP DP  RH WIND       PRES   REMARKS
CHARLESTON     MOSUNNY   67  28  23 SW23G37   29.79F
$$

WVZ022-031-311700-
North Central West Virginia

CITY           SKY/WX    TMP DP  RH WIND       PRES   REMARKS
CLARKSBURG     PTSUNNY   60  29  30 SW16G28   29.70F
MORGANTOWN     CLOUDY    59  25  27 SW17G24   29.69F
$$

WVZ025-035-042-045-311700-
Southern West Virginia

CITY           SKY/WX    TMP DP  RH WIND       PRES   REMARKS
BECKLEY        SUNNY     58  25  28 W18G29    29.87F
LOGAN            N/A     64  28  25 S9G18     29.82F
BLUEFIELD      SUNNY     61  24  24 W17G26    29.90F
LEWISBURG      MOSUNNY   60  26  26 SW10G16   29.86F
$$

WVZ047-311700-
Northern Mountains of West Virginia

CITY           SKY/WX    TMP DP  RH WIND       PRES   REMARKS
ELKINS         PTSUNNY   60  28  29 SW15G26   29.76F
$$

WVZ052-311700-
Eastern Panhandle of West Virginia

CITY           SKY/WX    TMP DP  RH WIND       PRES   REMARKS
MARTINSBURG    MOSUNNY   64  29  26 S14G24    29.73F
PETERSBURG     MOSUNNY   66  20  17 W22G31    29.72F
$$


USA.gov is the U.S. government's official web portal to all federal, state and local government web resources and services.